Marion, SC

7:58 PM EST on February 27, 2017 (GMT -0500)
Marion County

Weather History for KMAO - November, 2011

Change the Weather History Date:

Monday, November 7, 2011

  Actual Average (KFLO) Record (KFLO)
Temperature  
Mean Temperature 60 °F -  
Max Temperature 73 °F 68 °F 81 °F (1975)
Min Temperature 46 °F 43 °F 26 °F (1967)
Degree Days  
Heating Degree Days 6    
Growing Degree Days 10 (Base 50)    
Moisture  
Dew Point 51 °F    
Average Humidity 83    
Maximum Humidity 100    
Minimum Humidity 47    
Precipitation  
Precipitation 0.00 in - - ()
Sea Level Pressure  
Sea Level Pressure 30.32 in    
Wind  
Wind Speed 4 mph (NNE)    
Max Wind Speed 8 mph    
Max Gust Speed -    
Visibility 10 miles    
Events      
Averages and records for this station are not official NWS values.
T = Trace of Precipitation, MM = Missing Value Source: NWS Daily Summary

Daily Weather History Graph

Daily Weather History Graph

Search for Another Location

Airport or City:

Trip Planner

Search our weather history database for the weather conditions in past years. The results will help you decide how hot, cold, wet, or windy it might be!

Date:

Astronomy

Nov. 07, 2011 Rise Set
Actual Time 6:42 AM EST 5:19 PM EST
Civil Twilight 6:16 AM EST 5:45 PM EST
Nautical Twilight 5:46 AM EST 6:15 PM EST
Astronomical Twilight 5:16 AM EST 6:44 PM EST
Moon 3:24 PM EST (11/7) 3:49 AM EST (11/7)
Length of Visible Light 11h 29m
Length of Day
10h 36m
Waxing Gibbous, 91% of the Moon is Illuminated
Nov 7
Waxing Gibbous
Nov 10
Full
Nov 18
Last Quarter
Nov 25
New
Dec 2
First Quarter

Hourly Weather History & Observations

Time (EST) Temp. Windchill Dew Point Humidity Pressure Visibility Wind Dir Wind Speed Gust Speed Precip Events Conditions
12:15 AM 48.2 °F - 48.2 °F 100% 30.36 in 10.0 mi North 3.5 mph - N/A   Clear
12:35 AM 46.4 °F 45.2 °F 46.4 °F 100% 30.36 in 10.0 mi North 3.5 mph - N/A   Clear
12:55 AM 46.4 °F 45.2 °F 46.4 °F 100% 30.36 in 10.0 mi North 3.5 mph - N/A   Clear
1:15 AM 46.4 °F 44.3 °F 46.4 °F 100% 30.36 in 10.0 mi North 4.6 mph - N/A   Clear
1:35 AM 48.2 °F - 48.2 °F 100% 30.35 in 10.0 mi North 3.5 mph - N/A   Clear
2:15 AM 48.2 °F - 48.2 °F 100% 30.35 in 10.0 mi North 4.6 mph - N/A   Clear
2:35 AM 46.4 °F 45.2 °F 46.4 °F 100% 30.35 in 10.0 mi North 3.5 mph - N/A   Clear
2:55 AM 48.2 °F - 48.2 °F 100% 30.35 in 10.0 mi North 3.5 mph - N/A   Clear
3:35 AM 46.4 °F 44.3 °F 46.4 °F 100% 30.34 in 10.0 mi NNE 4.6 mph - N/A   Clear
3:55 AM 46.4 °F 45.2 °F 46.4 °F 100% 30.34 in 10.0 mi North 3.5 mph - N/A   Clear
4:15 AM 46.4 °F - 46.4 °F 100% 30.35 in 10.0 mi Calm Calm - N/A   Clear
4:35 AM 46.4 °F 44.3 °F 46.4 °F 100% 30.35 in 10.0 mi NNE 4.6 mph - N/A   Clear
4:55 AM 46.4 °F 44.3 °F 46.4 °F 100% 30.35 in 10.0 mi North 4.6 mph - N/A   Clear
5:15 AM 46.4 °F 45.2 °F 46.4 °F 100% 30.35 in 10.0 mi North 3.5 mph - N/A   Clear
5:35 AM 46.4 °F 45.2 °F 46.4 °F 100% 30.35 in 10.0 mi NNE 3.5 mph - N/A   Clear
5:55 AM 46.4 °F 45.2 °F 46.4 °F 100% 30.35 in 10.0 mi NE 3.5 mph - N/A   Clear
6:15 AM 46.4 °F 45.2 °F 46.4 °F 100% 30.35 in 10.0 mi NE 3.5 mph - N/A   Clear
6:35 AM 46.4 °F 45.2 °F 46.4 °F 100% 30.36 in 10.0 mi NNE 3.5 mph - N/A   Clear
7:15 AM 46.4 °F 45.2 °F 46.4 °F 100% 30.36 in 10.0 mi NNE 3.5 mph - N/A   Clear
7:35 AM 48.2 °F - 48.2 °F 100% 30.36 in 10.0 mi North 3.5 mph - N/A   Clear
7:55 AM 50.0 °F - 48.2 °F 94% 30.37 in 10.0 mi NNE 3.5 mph - N/A   Clear
8:15 AM 53.6 °F - 50.0 °F 88% 30.37 in 10.0 mi NE 6.9 mph - N/A   Clear
8:35 AM 55.4 °F - 50.0 °F 82% 30.37 in 10.0 mi NE 6.9 mph - N/A   Clear
9:15 AM 59.0 °F - 51.8 °F 77% 30.37 in 10.0 mi NE 6.9 mph - N/A   Clear
9:35 AM 60.8 °F - 53.6 °F 77% 30.37 in 10.0 mi NE 8.1 mph - N/A   Clear
9:55 AM 62.6 °F - 53.6 °F 72% 30.37 in 10.0 mi NE 5.8 mph - N/A   Clear
10:15 AM 64.4 °F - 53.6 °F 68% 30.36 in 10.0 mi ENE 5.8 mph - N/A   Clear
10:35 AM 64.4 °F - 55.4 °F 73% 30.36 in 10.0 mi ENE 6.9 mph - N/A   Clear
11:15 AM 68.0 °F - 55.4 °F 64% 30.35 in 10.0 mi ENE 6.9 mph - N/A   Clear
11:35 AM 69.8 °F - 55.4 °F 60% 30.34 in 10.0 mi NE 6.9 mph - N/A   Clear
11:55 AM 69.8 °F - 55.4 °F 60% 30.33 in 10.0 mi NE 5.8 mph - N/A   Clear
12:15 PM 71.6 °F - 53.6 °F 53% 30.32 in 10.0 mi North 5.8 mph - N/A   Clear
12:35 PM 71.6 °F - 53.6 °F 53% 30.31 in 10.0 mi NNE 8.1 mph - N/A   Clear
1:15 PM 71.6 °F - 53.6 °F 53% 30.29 in 7.0 mi NE 6.9 mph - N/A   Scattered Clouds
1:35 PM 71.6 °F - 53.6 °F 53% 30.29 in 10.0 mi ENE 6.9 mph - N/A   Scattered Clouds
1:55 PM 71.6 °F - 53.6 °F 53% 30.28 in 10.0 mi NNE 3.5 mph - N/A   Scattered Clouds
2:15 PM 73.4 °F - 51.8 °F 47% 30.27 in 10.0 mi NE 6.9 mph - N/A   Clear
2:35 PM 71.6 °F - 51.8 °F 50% 30.27 in 10.0 mi East 8.1 mph - N/A   Scattered Clouds
2:55 PM 71.6 °F - 51.8 °F 50% 30.27 in 10.0 mi North 4.6 mph - N/A   Scattered Clouds
3:15 PM 71.6 °F - 53.6 °F 53% 30.26 in 10.0 mi North 6.9 mph - N/A   Scattered Clouds
3:35 PM 71.6 °F - 53.6 °F 53% 30.26 in 10.0 mi NNE 6.9 mph - N/A   Mostly Cloudy
3:55 PM 71.6 °F - 53.6 °F 53% 30.26 in 10.0 mi NE 5.8 mph - N/A   Mostly Cloudy
4:15 PM 71.6 °F - 53.6 °F 53% 30.26 in 10.0 mi NNE 3.5 mph - N/A   Mostly Cloudy
4:55 PM 68.0 °F - 55.4 °F 64% 30.25 in 10.0 mi Calm Calm - N/A   Clear
5:15 PM 64.4 °F - 57.2 °F 77% 30.26 in 10.0 mi Calm Calm - N/A   Clear
5:35 PM 62.6 °F - 57.2 °F 82% 30.26 in 10.0 mi Calm Calm - N/A   Clear
5:55 PM 60.8 °F - 55.4 °F 82% 30.26 in 10.0 mi Calm Calm - N/A   Clear
6:15 PM 59.0 °F - 55.4 °F 88% 30.27 in 10.0 mi Calm Calm - N/A   Clear
6:35 PM 59.0 °F - 55.4 °F 88% 30.27 in 10.0 mi Calm Calm - N/A   Clear
6:55 PM 57.2 °F - 55.4 °F 94% 30.27 in 10.0 mi Calm Calm - N/A   Clear
7:15 PM 55.4 °F - 55.4 °F 100% 30.28 in 10.0 mi ESE 3.5 mph - N/A   Scattered Clouds
7:35 PM 57.2 °F - 55.4 °F 94% 30.28 in 10.0 mi Calm Calm - N/A   Mostly Cloudy
7:55 PM 55.4 °F - 53.6 °F 94% 30.28 in 10.0 mi Calm Calm - N/A   Scattered Clouds
8:15 PM 55.4 °F - 55.4 °F 100% 30.29 in 10.0 mi Calm Calm - N/A   Scattered Clouds
8:35 PM 53.6 °F - 53.6 °F 100% 30.29 in 10.0 mi Calm Calm - N/A   Clear
9:15 PM 53.6 °F - 53.6 °F 100% 30.29 in 10.0 mi Calm Calm - N/A   Clear
9:35 PM 53.6 °F - 53.6 °F 100% 30.29 in 10.0 mi NE 3.5 mph - N/A   Clear
9:55 PM 53.6 °F - 53.6 °F 100% 30.29 in 10.0 mi Calm Calm - N/A   Clear
10:15 PM 51.8 °F - 51.8 °F 100% 30.29 in 10.0 mi Calm Calm - N/A   Clear
10:35 PM 51.8 °F - 51.8 °F 100% 30.28 in 10.0 mi Calm Calm - N/A   Clear
10:55 PM 50.0 °F - 50.0 °F 100% 30.28 in 10.0 mi NE 3.5 mph - N/A   Clear
11:15 PM 50.0 °F - 50.0 °F 100% 30.27 in 10.0 mi ENE 3.5 mph - N/A   Clear
11:35 PM 50.0 °F - 50.0 °F 100% 30.27 in 10.0 mi ENE 3.5 mph - N/A   Clear
11:55 PM 51.8 °F - 51.8 °F 100% 30.27 in 10.0 mi Calm Calm - N/A   Clear